TimeAKST,TemperatureF,Dew PointF,Humidity,Sea Level PressureIn,VisibilityMPH,Wind Direction,Wind SpeedMPH,Gust SpeedMPH,PrecipitationIn,Events,Conditions,WindDirDegrees,DateUTC
12:30 AM,42.8,42.8,100,29.47,3.0,North,8.1,-,0.01,Rain,Light Rain,10,2012-11-10 09:30:00
12:53 AM,43.0,42.1,97,29.47,3.0,North,8.1,-,0.02,Rain,Light Rain,360,2012-11-10 09:53:00
1:53 AM,44.1,42.1,93,29.46,4.0,North,9.2,-,0.02,Rain,Light Rain,350,2012-11-10 10:53:00
2:04 AM,44.6,42.8,93,29.45,4.0,North,6.9,-,0.01,Rain,Light Rain,350,2012-11-10 11:04:00
2:36 AM,44.6,42.8,93,29.45,4.0,North,8.1,-,0.01,Rain,Light Rain,360,2012-11-10 11:36:00
3:20 AM,44.6,42.8,93,29.44,3.0,North,8.1,-,0.01,Rain,Light Rain,10,2012-11-10 12:20:00
3:53 AM,44.1,42.1,93,29.45,3.0,North,12.7,18.4,0.02,Rain,Light Rain,10,2012-11-10 12:53:00
4:53 AM,43.0,41.0,93,29.44,3.0,North,13.8,20.7,0.02,Rain,Light Rain,360,2012-11-10 13:53:00
4:58 AM,42.8,41.0,93,29.44,3.0,North,9.2,19.6,0.01,Rain,Light Rain,10,2012-11-10 13:58:00
5:37 AM,42.8,41.0,93,29.45,3.0,North,8.1,-,0.04,Rain,Light Rain,360,2012-11-10 14:37:00
5:53 AM,43.0,41.0,93,29.45,3.0,North,13.8,23.0,0.05,Rain,Light Rain,10,2012-11-10 14:53:00
6:53 AM,42.1,41.0,96,29.45,3.0,North,9.2,-,0.06,Rain,Light Rain,360,2012-11-10 15:53:00
7:53 AM,42.1,39.9,92,29.45,3.0,North,10.4,-,0.05,Rain,Light Rain,360,2012-11-10 16:53:00
8:53 AM,42.1,39.9,92,29.45,3.0,NNW,11.5,23.0,0.04,Rain,Light Rain,340,2012-11-10 17:53:00
8:57 AM,42.8,39.2,87,29.45,3.0,North,9.2,23.0,0.01,Rain,Light Rain,360,2012-11-10 17:57:00
9:53 AM,42.1,39.9,92,29.46,4.0,North,8.1,-,0.06,Rain,Light Rain,360,2012-11-10 18:53:00
10:27 AM,42.8,39.2,87,29.46,2.0,North,9.2,-,0.02,Rain,Light Rain,360,2012-11-10 19:27:00
10:53 AM,41.0,39.0,93,29.46,2.0,NNE,12.7,23.0,0.04,Rain,Light Rain,20,2012-11-10 19:53:00
11:53 AM,42.1,39.0,89,29.47,2.0,North,13.8,24.2,0.03,Rain,Light Rain,10,2012-11-10 20:53:00
12:53 PM,42.1,39.0,89,29.46,5.0,NNE,15.0,20.7,0.03,Rain,Light Rain,20,2012-11-10 21:53:00
1:53 PM,41.0,39.0,93,29.46,4.0,NNW,4.6,-,0.01,Rain,Light Rain,330,2012-11-10 22:53:00
2:00 PM,41.0,39.2,93,29.46,7.0,Variable,6.9,-,0.00,Rain,Light Rain,0,2012-11-10 23:00:00
2:53 PM,42.1,37.9,85,29.45,10.0,NW,10.4,-,0.01,,Overcast,320,2012-11-10 23:53:00
3:53 PM,41.0,37.9,89,29.44,10.0,WNW,9.2,-,0.00,,Overcast,300,2012-11-11 00:53:00
4:53 PM,42.1,37.0,82,29.44,10.0,WNW,13.8,-,N/A,,Overcast,300,2012-11-11 01:53:00
5:41 PM,41.0,37.4,87,29.45,9.0,WNW,10.4,-,N/A,,Overcast,300,2012-11-11 02:41:00
5:53 PM,41.0,37.9,89,29.45,8.0,WNW,11.5,-,N/A,,Overcast,300,2012-11-11 02:53:00
6:53 PM,41.0,37.9,89,29.46,9.0,WNW,11.5,-,N/A,,Overcast,300,2012-11-11 03:53:00
7:53 PM,39.9,37.9,93,29.47,6.0,WNW,12.7,-,N/A,,Overcast,300,2012-11-11 04:53:00
8:53 PM,39.9,37.9,93,29.47,10.0,WNW,13.8,-,N/A,,Overcast,290,2012-11-11 05:53:00
9:53 PM,39.9,37.9,93,29.48,6.0,WNW,15.0,-,0.00,Rain,Light Rain,290,2012-11-11 06:53:00
10:53 PM,41.0,37.0,86,29.49,10.0,WNW,15.0,24.2,0.00,Rain,Light Rain,300,2012-11-11 07:53:00
11:29 PM,39.2,37.4,93,29.48,6.0,WNW,15.0,-,0.00,,Overcast,300,2012-11-11 08:29:00
11:53 PM,39.9,37.0,89,29.49,7.0,WNW,17.3,-,0.00,,Overcast,290,2012-11-11 08:53:00